Total_Precipitation_Accumulation
0.80 0.82 0.76 0.81 0.73 0.72 0.81 0.88 0.87 0.88 0.80 0.68 0.65 0.64 0.71 0.66 0.63 0.67 0.85 1.03 1.37 1.64 1.71 1.53 1.34 1.22 1.19 1.17 1.37 1.60 1.92 2.09 1.95 1.86 1.67 1.56 1.77 1.86 1.46 1.35 1.34 1.29 1.33
0.84 0.88 0.85 0.85 0.82 0.76 0.80 0.96 0.89 0.94 0.93 0.87 0.72 0.68 0.72 0.69 0.65 0.68 0.78 1.02 1.20 1.35 1.63 1.79 1.62 1.44 1.28 1.24 1.34 1.57 1.93 2.03 1.77 1.72 1.70 1.63 1.81 1.87 1.54 1.39 1.31 1.20 1.31
0.81 0.85 0.87 0.84 0.84 0.84 0.84 0.89 0.92 0.99 0.91 0.86 0.81 0.76 0.73 0.69 0.61 0.68 0.70 0.79 0.80 0.93 1.20 1.48 1.66 1.58 1.48 1.44 1.46 1.67 1.93 1.90 1.68 1.66 1.72 1.69 1.66 1.73 1.68 1.50 1.34 1.22 1.26
0.88 0.88 0.93 0.94 0.98 1.01 0.98 0.99 1.02 1.05 1.02 1.01 0.99 0.95 0.78 0.78 0.69 0.69 0.69 0.70 0.76 0.73 0.84 0.97 1.21 1.41 1.58 1.67 1.83 2.04 1.96 1.80 1.60 1.56 1.71 1.65 1.57 1.65 1.68 1.59 1.35 1.25 1.22
0.94 1.05 1.09 1.14 1.12 1.14 1.16 1.11 1.13 1.07 1.07 1.09 1.02 1.00 0.89 0.86 0.83 0.70 0.77 0.79 0.79 0.75 0.78 0.69 0.75 0.86 1.12 1.46 1.96 2.25 1.97 1.82 1.68 1.55 1.59 1.57 1.61 1.73 1.69 1.49 1.30 1.21 1.20
1.24 1.39 1.47 1.41 1.40 1.41 1.40 1.35 1.43 1.32 1.14 1.14 1.07 1.02 0.91 0.81 0.88 0.87 0.85 0.84 0.88 0.86 0.79 0.69 0.65 0.55 0.65 1.00 1.57 2.00 1.95 1.87 1.73 1.65 1.59 1.58 1.67 1.75 1.66 1.51 1.35 1.32 1.28
1.62 1.74 1.67 1.75 1.79 1.66 1.66 1.70 1.76 1.70 1.45 1.32 1.39 1.29 1.02 0.79 0.86 0.85 0.83 0.87 0.93 1.04 1.07 0.93 0.79 0.70 0.66 0.72 1.05 1.54 1.85 1.91 1.94 1.80 1.69 1.68 1.66 1.65 1.63 1.57 1.54 1.47 1.41
1.85 1.89 1.97 2.04 2.08 2.07 2.03 1.92 2.00 2.09 1.82 1.61 1.72 2.02 1.61 1.20 0.86 0.70 0.79 0.84 0.94 1.18 1.24 1.07 0.87 0.80 0.79 0.84 0.72 0.97 1.33 1.76 1.97 1.97 1.88 1.82 1.81 1.79 1.73 1.56 1.50 1.50 1.51
2.08 2.11 2.16 2.23 2.23 2.09 2.08 2.17 2.26 2.60 2.41 2.05 1.87 2.13 1.94 1.61 1.31 0.89 0.83 0.89 0.97 1.14 1.27 1.28 1.16 1.09 0.99 0.98 0.90 0.70 0.84 1.26 1.66 1.96 2.03 1.95 1.84 1.87 1.92 1.73 1.49 1.42 1.38
2.01 2.12 2.14 2.13 2.10 2.04 2.11 2.17 2.20 2.58 2.77 2.48 2.16 1.83 1.62 1.59 1.65 1.34 0.99 0.95 1.03 1.06 1.17 1.24 1.19 1.25 1.22 1.19 1.14 0.85 0.75 0.97 1.30 1.77 2.08 2.27 2.06 1.84 1.73 1.74 1.69 1.51 1.33
1.88 1.91 1.93 2.02 2.05 2.09 2.15 2.30 2.41 2.63 2.66 2.66 2.49 2.30 2.09 1.80 1.46 1.50 1.43 1.18 1.14 1.06 1.15 1.27 1.31 1.39 1.39 1.40 1.48 1.17 0.89 0.78 0.96 1.40 1.91 2.31 2.33 2.15 1.91 1.77 1.74 1.70 1.46
1.86 1.79 1.76 1.82 1.94 2.11 2.17 2.25 2.39 2.62 2.72 2.80 2.73 2.48 2.39 2.22 1.93 1.80 1.55 1.40 1.40 1.21 1.18 1.21 1.25 1.38 1.51 1.57 1.49 1.56 1.25 0.86 0.75 1.02 1.35 1.80 2.24 2.41 2.34 2.19 2.05 2.01 1.84
1.56 1.59 1.67 1.76 1.89 2.01 2.09 2.21 2.35 2.39 2.50 2.73 2.75 2.58 2.38 2.17 2.13 2.03 1.92 1.61 1.44 1.27 1.25 1.24 1.19 1.24 1.26 1.51 1.62 1.67 1.36 1.02 0.75 0.76 0.90 1.06 1.42 1.90 2.30 2.37 2.34 2.41 2.38
1.46 1.39 1.44 1.54 1.77 1.97 2.05 2.14 2.16 2.13 2.18 2.36 2.37 2.44 2.41 2.12 2.06 1.96 1.96 2.03 1.76 1.56 1.41 1.23 1.11 1.15 1.18 1.37 1.65 1.73 1.30 1.11 0.89 0.75 0.77 0.87 0.94 1.12 1.52 2.07 2.36 2.48 2.62
1.25 1.20 1.23 1.27 1.39 1.63 1.89 2.04 1.98 1.90 1.87 2.02 2.09 2.18 2.30 2.31 2.22 2.12 2.09 2.14 2.08 1.83 1.63 1.43 1.21 1.09 1.15 1.25 1.64 1.59 1.38 1.20 1.07 0.90 0.81 0.86 0.84 0.89 1.02 1.32 1.62 1.76 1.92
1.06 1.06 1.06 1.11 1.24 1.35 1.56 1.79 1.89 1.83 1.80 1.85 1.96 2.09 2.23 2.32 2.37 2.18 2.14 2.11 1.96 1.87 1.71 1.42 1.20 1.12 1.18 1.16 1.50 1.53 1.49 1.47 1.23 1.06 0.97 0.93 0.93 0.87 0.89 1.02 1.10 1.13 1.09
0.82 0.85 1.03 1.08 1.15 1.23 1.40 1.66 1.84 1.85 1.77 1.77 1.77 1.85 2.02 2.11 2.33 2.30 2.22 2.11 1.98 1.81 1.67 1.52 1.31 1.15 1.19 1.25 1.35 1.46 1.48 1.38 1.19 1.14 1.02 0.96 0.93 0.92 0.90 0.96 1.09 1.01 0.91
0.59 0.71 0.84 0.89 0.93 0.97 1.16 1.45 1.65 1.68 1.65 1.56 1.55 1.68 1.90 2.08 2.28 2.39 2.34 2.20 2.11 1.97 1.85 1.78 1.60 1.39 1.27 1.30 1.40 1.52 1.52 1.45 1.36 1.34 1.20 1.08 1.01 0.94 0.94 0.93 0.99 1.06 1.01
0.62 0.74 0.84 0.89 0.91 0.96 0.99 1.09 1.25 1.37 1.36 1.30 1.34 1.40 1.46 1.67 1.96 2.14 2.16 2.18 2.21 2.19 2.14 1.98 1.77 1.64 1.50 1.39 1.46 1.51 1.51 1.57 1.44 1.43 1.40 1.31 1.24 1.16 1.07 1.01 0.99 1.01 1.05
0.58 0.67 0.73 0.80 0.88 0.94 0.94 0.95 0.97 1.03 1.05 1.10 1.16 1.21 1.26 1.30 1.53 1.72 1.81 2.00 2.23 2.24 2.25 2.18 1.96 1.78 1.65 1.52 1.58 1.67 1.75 1.74 1.58 1.37 1.36 1.30 1.34 1.30 1.18 1.03 0.96 0.95 1.00
0.49 0.57 0.64 0.67 0.73 0.82 0.91 0.93 0.80 0.76 0.83 0.94 0.97 0.95 0.97 1.04 1.18 1.28 1.36 1.71 2.05 2.24 2.23 2.18 2.05 1.94 1.69 1.55 1.42 1.43 1.65 1.90 1.87 1.76 1.64 1.39 1.34 1.26 1.19 1.13 1.02 0.96 0.97
0.47 0.52 0.52 0.55 0.67 0.70 0.85 0.83 0.66 0.64 0.67 0.77 0.86 0.86 0.76 0.75 0.79 0.87 0.95 1.13 1.41 1.66 1.94 2.12 2.04 1.85 1.64 1.53 1.48 1.50 1.55 1.69 1.83 1.73 1.76 1.74 1.65 1.59 1.49 1.35 1.32 1.23 1.13
0.44 0.46 0.46 0.47 0.53 0.66 0.71 0.57 0.54 0.56 0.63 0.68 0.74 0.81 0.74 0.64 0.71 0.75 0.85 0.92 0.94 1.02 1.31 1.65 1.78 1.73 1.80 1.67 1.63 1.56 1.53 1.61 1.66 1.63 1.77 1.83 1.79 1.74 1.66 1.63 1.71 1.56 1.38
0.52 0.51 0.52 0.51 0.51 0.57 0.57 0.46 0.49 0.51 0.56 0.61 0.70 0.78 0.83 0.76 0.75 0.86 0.86 0.89 0.85 0.81 1.01 1.02 1.19 1.49 1.67 1.76 1.73 1.81 1.97 1.93 1.79 1.66 1.61 1.67 1.59 1.57 1.58 1.58 1.68 1.61 1.50
0.50 0.53 0.56 0.56 0.52 0.49 0.51 0.43 0.45 0.51 0.56 0.60 0.62 0.67 0.75 0.73 0.86 0.95 0.95 1.08 1.05 0.93 1.05 1.11 1.15 1.19 1.32 1.48 1.60 1.68 1.77 1.83 1.80 1.70 1.51 1.38 1.33 1.33 1.39 1.40 1.41 1.48 1.46
0.29 0.39 0.41 0.44 0.48 0.47 0.58 0.46 0.47 0.50 0.59 0.69 0.70 0.68 0.82 0.81 0.88 0.87 0.86 1.09 1.11 0.98 0.90 0.96 0.97 0.95 0.90 1.01 1.22 1.39 1.60 1.70 1.68 1.59 1.35 1.22 1.19 1.22 1.22 1.08 1.00 1.05 1.05